Wind_Speed
10 11 11 12 12 13 13 13 13 13 13 14 14 13 13 13 13 12 12 13 13 13 13 13 12 13 13 13 12 13 13 13 13 13 13 13 13 12 12 12 11 11 11 12
11 11 11 12 12 12 12 13 13 14 14 14 14 13 13 13 13 13 13 12 13 13 13 13 13 13 13 13 13 13 14 14 14 14 14 14 14 13 12 12 12 12 12 12
12 12 13 12 13 13 13 13 13 14 14 14 14 13 13 13 14 14 14 13 13 14 14 14 14 14 14 14 14 15 15 15 15 15 15 14 14 14 13 13 12 12 13 12
12 12 13 13 13 13 13 13 13 13 13 14 14 13 13 14 14 14 14 14 14 14 15 15 15 15 15 15 16 16 16 16 15 15 15 15 15 14 14 14 13 13 13 13
12 13 13 13 13 13 14 13 13 13 14 14 14 15 14 14 14 14 14 14 14 15 15 15 15 15 15 16 16 16 16 16 16 16 16 17 16 16 16 15 15 15 15 15
12 13 13 13 13 13 13 13 14 14 14 15 15 16 15 15 14 15 15 15 15 15 15 15 15 15 16 16 16 17 17 16 17 17 17 18 17 17 17 17 17 17 17 17
11 12 12 13 13 13 14 14 14 15 15 16 16 17 16 15 15 15 15 15 15 16 16 16 15 16 17 17 17 17 17 17 17 18 18 18 18 18 18 18 18 18 18 18
12 13 13 13 14 15 15 15 16 17 17 17 18 17 16 15 16 16 16 16 16 17 17 16 16 16 17 17 18 18 18 18 18 19 19 19 20 20 20 20 20 19 19 19
14 14 14 15 15 16 17 17 17 18 18 19 19 18 16 16 17 17 17 17 17 17 17 17 17 18 18 18 19 19 19 19 20 20 20 20 21 21 21 21 21 21 21 21
16 16 16 16 17 17 18 18 19 19 20 20 20 19 18 17 18 17 17 18 18 18 19 19 19 20 20 20 20 20 20 20 20 21 21 21 22 22 22 22 22 22 22 22
18 19 18 18 18 18 19 20 20 21 21 21 21 21 19 19 19 19 19 19 20 20 20 21 21 21 22 22 22 22 21 22 22 22 22 23 23 23 23 23 23 23 23 22
19 20 20 20 20 20 21 21 22 23 23 23 23 23 21 21 21 20 20 20 21 21 21 22 23 23 23 23 23 23 23 24 24 24 24 24 23 23 24 24 25 24 24 24
20 21 21 21 22 22 23 23 24 24 25 25 25 24 22 22 23 23 22 22 22 22 23 23 23 24 24 24 24 24 25 25 25 25 25 24 24 24 25 25 25 25 25 25
22 22 22 23 23 23 24 24 24 25 26 27 26 25 24 24 24 24 24 24 25 25 24 24 24 25 25 24 24 25 25 26 26 26 26 25 25 25 25 25 25 25 26 26
24 24 24 24 24 25 25 25 26 27 27 28 27 27 26 26 25 25 26 27 27 27 26 26 26 26 26 26 25 26 26 27 27 27 27 26 26 26 26 26 26 26 27 27
24 25 25 25 26 26 27 27 27 28 28 29 29 28 27 28 27 27 27 28 28 28 28 28 28 28 28 27 27 26 27 28 28 28 28 28 28 28 27 27 27 27 27 28
23 24 25 25 26 27 28 27 28 29 29 29 29 29 28 28 28 28 28 28 28 28 28 29 29 29 29 29 28 28 28 28 29 28 28 28 28 28 28 28 28 29 29 29
22 23 24 25 25 27 27 27 28 28 28 28 29 29 29 29 29 29 29 29 28 29 29 29 30 30 30 30 30 29 28 28 29 29 28 28 28 28 29 29 29 29 30 30
22 23 24 25 27 27 27 28 27 28 27 27 27 28 28 29 30 29 29 29 29 29 29 29 30 30 30 30 30 29 29 29 29 29 29 29 29 29 29 30 30 30 31 31
22 23 24 25 26 27 27 27 27 28 28 26 27 27 27 28 29 28 29 29 28 28 28 29 30 30 31 30 30 30 30 29 29 30 30 30 30 29 30 30 30 31 32 32
23 24 25 25 26 27 26 26 27 28 27 26 26 27 27 27 28 28 28 28 29 29 30 30 30 31 31 31 30 30 30 30 30 30 31 31 31 31 32 32 32 32 32 32
24 25 25 26 27 28 27 26 26 27 27 26 26 26 26 27 27 27 28 28 28 29 30 30 31 31 30 30 30 30 30 30 31 31 31 32 32 32 33 33 33 32 32 33
24 25 26 27 27 28 27 27 27 27 27 26 26 26 26 26 26 27 27 27 28 28 29 29 29 29 29 29 29 29 29 30 31 32 32 32 32 33 33 34 34 33 33 33
25 26 27 28 27 28 28 27 26 26 26 26 26 26 26 26 26 26 27 27 28 28 28 29 28 28 28 29 29 29 30 31 31 32 32 33 33 33 33 33 33 33 33 33
25 26 27 28 28 28 27 28 27 27 26 27 27 27 27 26 26 26 27 27 28 28 28 28 28 28 28 28 29 29 30 30 31 31 32 32 33 33 33 33 33 33 33 33
26 27 28 28 27 28 27 27 27 27 26 25 26 26 26 26 26 26 27 27 28 28 28 27 27 27 27 28 28 29 29 30 31 31 32 32 32 32 32 32 32 31 31 31
Wind_Direction
249 249 247 245 244 245 246 246 245 246 247 249 250 251 253 254 256 257 257 258 261 262 261 261 260 263 265 266 269 274 277 277 278 278 278 275 274 275 276 275 276 278 280 282
252 251 250 248 247 247 247 247 247 247 247 248 250 252 252 253 255 255 256 259 262 263 262 261 261 263 266 268 271 275 277 278 278 279 278 276 276 275 274 272 272 274 278 280
253 252 252 250 249 247 247 246 248 249 251 252 253 253 254 255 256 256 257 259 262 263 263 263 262 263 266 268 270 273 275 277 278 277 277 275 276 274 272 271 272 275 277 277
253 252 251 251 250 249 247 246 248 250 252 254 256 256 258 258 257 259 259 260 261 263 265 266 265 265 267 268 271 272 274 275 276 277 276 276 277 274 272 273 274 276 278 280
255 253 252 253 252 252 249 248 251 252 254 256 258 258 258 259 260 260 260 260 261 263 264 267 268 267 266 268 270 272 273 275 275 276 277 276 276 273 271 272 275 277 279 281
256 253 251 251 251 250 248 250 255 255 256 258 259 260 258 261 261 261 262 261 262 263 265 269 270 269 268 269 270 272 273 275 275 276 277 276 275 273 271 272 275 278 280 281
257 254 251 249 249 250 249 250 256 258 260 263 261 259 259 260 260 262 262 263 263 263 266 268 270 271 269 270 271 273 274 274 275 276 275 276 275 274 272 272 276 278 280 280
260 258 253 249 249 250 249 251 253 259 262 265 263 261 261 261 260 261 262 264 264 263 264 267 270 271 270 270 271 273 274 275 276 276 275 275 274 273 272 273 276 278 279 279
263 259 253 249 249 250 251 253 256 260 262 264 264 265 261 262 260 260 261 264 265 265 266 268 270 271 271 271 272 273 274 274 276 277 277 276 274 274 274 274 275 277 278 279
261 261 257 252 250 251 252 253 254 258 264 267 267 267 267 265 262 262 262 265 266 267 267 269 269 270 271 272 273 274 274 274 275 276 276 277 275 275 274 273 274 276 278 279
261 262 260 257 254 254 253 252 254 258 261 265 269 268 268 267 264 263 265 267 267 267 267 268 268 269 270 271 272 273 274 273 274 276 277 277 276 274 273 273 274 275 276 277
262 262 261 260 259 257 255 254 255 259 263 265 267 269 269 269 267 265 265 266 267 267 267 267 268 269 271 272 273 273 273 273 274 275 277 277 275 274 273 273 274 275 275 276
261 262 264 263 260 258 257 258 258 259 263 265 267 269 270 269 266 265 265 265 265 266 266 267 268 269 271 272 272 273 274 274 274 274 275 274 274 275 275 275 274 274 274 274
262 263 263 263 263 263 261 260 261 262 263 266 267 268 269 270 269 267 266 266 265 265 265 267 268 269 271 271 271 271 271 272 273 273 273 273 274 275 275 275 275 274 274 275
263 263 263 262 261 261 262 263 262 263 265 266 268 267 268 269 270 268 266 266 265 265 266 267 268 268 269 270 270 271 270 270 271 272 273 273 273 273 274 274 274 275 275 275
265 265 263 263 262 262 262 263 264 265 267 268 268 267 268 268 268 268 267 266 266 265 266 268 268 267 266 269 271 271 270 269 269 271 273 274 273 273 273 273 274 275 275 276
266 266 266 266 265 265 264 265 266 267 268 269 269 269 268 266 267 268 267 267 266 266 266 266 267 267 267 269 271 271 271 270 270 271 273 274 275 274 274 273 274 275 275 276
267 267 268 268 268 268 269 269 269 269 270 271 270 270 269 268 268 268 267 267 267 267 268 268 267 267 267 268 269 271 271 271 271 270 272 273 274 275 274 274 274 275 275 275
267 267 269 270 270 272 271 273 272 272 271 272 272 271 270 270 269 268 268 268 268 268 268 268 268 267 267 267 268 270 269 269 270 271 272 273 274 275 274 274 274 274 275 275
270 270 271 273 274 276 276 276 276 276 274 274 273 272 271 271 270 269 269 269 267 268 268 268 269 269 268 267 268 270 270 270 270 271 272 273 274 274 275 274 275 275 275 275
271 271 273 274 275 276 277 277 278 277 278 276 273 272 272 270 270 269 268 267 267 268 268 269 269 270 270 269 269 269 270 271 271 272 273 274 274 275 275 275 276 276 276 276
273 274 274 276 276 277 278 278 277 278 278 276 273 272 271 270 271 270 268 268 268 269 269 269 270 271 271 270 269 269 270 271 272 274 275 275 275 275 275 276 276 276 276 276
275 276 277 278 278 278 277 276 276 277 277 276 274 270 270 271 271 272 270 269 270 271 271 271 272 272 270 269 269 269 269 271 272 272 273 275 276 276 276 277 276 275 276 276
275 277 278 279 279 277 276 275 275 275 275 275 274 273 273 273 273 272 271 270 269 270 270 270 272 272 270 269 270 270 271 271 273 273 273 274 276 278 278 279 277 276 276 276
275 276 278 278 278 277 275 273 274 274 275 275 274 274 274 274 273 271 271 271 270 270 271 271 271 270 270 270 271 272 272 272 273 273 273 274 275 276 277 277 277 278 277 276
275 276 276 277 277 277 276 273 273 274 275 275 274 273 273 274 274 273 272 271 271 271 271 270 271 271 271 271 272 273 273 273 274 275 275 275 276 276 276 276 276 277 276 276
Height
5838 5840 5839 5840 5841 5843 5843 5844 5846 5847 5847 5848 5849 5850 5850 5851 5851 5852 5852 5853 5853 5853 5853 5853 5853 5853 5853 5853 5853 5852 5852 5852 5851 5851 5850 5850 5849 5848 5848 5847 5847 5846 5845 5844
5836 5836 5837 5836 5838 5839 5840 5842 5843 5844 5844 5845 5846 5847 5847 5848 5848 5849 5849 5849 5850 5850 5850 5850 5850 5850 5850 5850 5850 5849 5849 5849 5848 5848 5847 5847 5846 5846 5845 5844 5844 5843 5842 5842
5833 5834 5833 5834 5835 5836 5837 5839 5840 5840 5841 5842 5843 5844 5844 5845 5845 5845 5846 5846 5846 5846 5846 5846 5846 5846 5847 5847 5846 5846 5846 5845 5845 5844 5844 5844 5843 5842 5842 5841 5841 5840 5839 5838
5829 5830 5830 5831 5832 5833 5834 5835 5836 5837 5838 5839 5840 5841 5842 5842 5842 5842 5842 5843 5843 5843 5843 5843 5843 5843 5843 5843 5843 5842 5842 5842 5841 5841 5841 5840 5840 5839 5838 5838 5837 5837 5836 5835
5826 5826 5827 5828 5829 5829 5831 5832 5833 5834 5834 5836 5836 5837 5839 5838 5839 5839 5839 5839 5839 5839 5839 5839 5839 5839 5839 5839 5839 5839 5838 5838 5838 5837 5837 5836 5836 5835 5835 5834 5834 5833 5832 5831
5822 5822 5823 5824 5825 5826 5827 5829 5829 5830 5831 5832 5833 5833 5835 5835 5835 5835 5835 5835 5835 5835 5835 5835 5835 5835 5835 5835 5835 5834 5834 5834 5834 5833 5833 5832 5832 5831 5831 5830 5830 5829 5828 5827
5819 5819 5819 5820 5821 5822 5824 5826 5826 5827 5827 5829 5829 5829 5831 5831 5831 5831 5831 5831 5831 5831 5831 5831 5831 5831 5831 5831 5831 5830 5830 5829 5829 5829 5828 5828 5827 5827 5826 5826 5825 5824 5823 5822
5815 5816 5816 5817 5818 5819 5820 5822 5824 5824 5824 5825 5824 5825 5827 5827 5826 5826 5827 5827 5827 5827 5827 5827 5827 5827 5826 5826 5826 5826 5825 5825 5824 5824 5823 5823 5822 5822 5821 5821 5820 5819 5818 5817
5811 5812 5812 5813 5814 5815 5815 5817 5819 5819 5819 5820 5820 5821 5822 5822 5822 5822 5822 5822 5823 5823 5823 5823 5823 5822 5822 5821 5821 5821 5820 5820 5819 5819 5818 5818 5817 5816 5816 5815 5815 5814 5813 5812
5806 5807 5808 5808 5809 5810 5812 5812 5813 5813 5814 5815 5816 5816 5817 5817 5817 5818 5818 5818 5818 5818 5818 5818 5818 5817 5817 5816 5816 5815 5815 5814 5814 5813 5813 5812 5811 5811 5810 5810 5809 5808 5807 5806
5801 5802 5803 5803 5804 5805 5806 5807 5808 5808 5809 5810 5810 5813 5812 5812 5812 5812 5812 5812 5813 5812 5812 5812 5812 5812 5811 5811 5810 5810 5809 5809 5808 5807 5807 5806 5805 5805 5804 5804 5803 5802 5801 5800
5796 5796 5797 5798 5799 5799 5800 5801 5802 5803 5803 5803 5804 5808 5806 5806 5806 5806 5806 5806 5806 5806 5806 5806 5806 5806 5805 5805 5804 5804 5803 5802 5802 5801 5800 5800 5799 5798 5798 5797 5796 5795 5795 5794
5790 5791 5791 5792 5794 5794 5794 5795 5796 5797 5797 5797 5798 5801 5799 5799 5799 5799 5800 5800 5800 5800 5800 5799 5799 5799 5799 5798 5798 5797 5796 5796 5795 5794 5794 5793 5792 5792 5791 5790 5789 5789 5788 5787
5784 5784 5786 5787 5787 5787 5788 5789 5789 5790 5790 5790 5791 5793 5792 5792 5792 5792 5792 5793 5793 5793 5792 5792 5792 5792 5792 5791 5791 5790 5789 5789 5788 5787 5786 5786 5785 5785 5784 5783 5782 5781 5781 5780
5777 5778 5778 5779 5779 5780 5780 5781 5782 5782 5782 5783 5784 5784 5785 5784 5784 5785 5785 5785 5785 5785 5785 5785 5785 5784 5784 5783 5783 5782 5782 5781 5780 5780 5779 5779 5778 5777 5776 5776 5775 5774 5773 5772
5770 5770 5771 5772 5772 5772 5772 5773 5774 5774 5774 5775 5775 5776 5776 5776 5776 5776 5776 5776 5776 5777 5777 5777 5776 5776 5776 5776 5775 5775 5774 5773 5773 5772 5772 5771 5770 5769 5769 5768 5767 5766 5765 5764
5763 5763 5764 5764 5765 5764 5765 5766 5766 5766 5766 5767 5767 5768 5767 5767 5767 5768 5768 5768 5768 5768 5768 5768 5768 5768 5768 5767 5767 5767 5766 5765 5764 5764 5763 5762 5762 5761 5761 5760 5759 5758 5757 5756
5756 5756 5756 5757 5757 5756 5760 5758 5758 5758 5758 5758 5758 5758 5758 5758 5758 5758 5758 5758 5758 5759 5759 5759 5759 5759 5759 5758 5758 5758 5757 5756 5756 5755 5755 5754 5753 5752 5752 5751 5750 5749 5748 5747
5749 5749 5749 5749 5748 5749 5751 5750 5749 5749 5749 5750 5749 5749 5749 5749 5749 5749 5749 5749 5749 5749 5750 5750 5749 5749 5749 5749 5749 5749 5748 5748 5747 5747 5746 5745 5744 5743 5743 5742 5741 5740 5739 5738
5742 5742 5742 5741 5740 5741 5744 5742 5740 5741 5740 5741 5740 5740 5740 5739 5740 5741 5740 5740 5740 5740 5740 5740 5740 5740 5740 5740 5740 5739 5739 5738 5738 5738 5737 5736 5735 5734 5733 5733 5732 5730 5729 5728
5735 5734 5734 5733 5732 5732 5734 5733 5732 5733 5734 5732 5731 5730 5730 5730 5731 5731 5731 5731 5731 5731 5731 5730 5730 5730 5730 5730 5730 5730 5730 5729 5729 5728 5728 5727 5726 5725 5724 5723 5722 5721 5719 5718
5727 5727 5726 5725 5724 5727 5725 5724 5724 5724 5723 5722 5722 5722 5721 5721 5721 5721 5721 5721 5721 5721 5721 5721 5721 5721 5720 5720 5720 5720 5720 5720 5719 5719 5718 5717 5716 5715 5714 5713 5711 5710 5709 5708
5719 5719 5718 5718 5719 5717 5716 5715 5715 5714 5714 5713 5713 5712 5712 5712 5712 5712 5712 5712 5712 5712 5712 5711 5711 5711 5711 5710 5710 5710 5710 5710 5709 5709 5708 5707 5706 5705 5703 5702 5701 5700 5699 5698
5712 5710 5709 5708 5708 5708 5707 5706 5706 5705 5705 5704 5704 5703 5703 5703 5703 5703 5703 5703 5703 5702 5702 5702 5702 5702 5701 5701 5700 5700 5700 5699 5699 5698 5697 5696 5695 5694 5693 5691 5690 5689 5688 5687
5703 5702 5700 5699 5699 5698 5698 5697 5697 5696 5696 5695 5695 5694 5694 5694 5694 5693 5693 5693 5693 5693 5693 5692 5692 5692 5692 5691 5691 5690 5690 5689 5689 5688 5687 5686 5684 5683 5682 5681 5680 5679 5678 5677
5694 5692 5691 5690 5690 5689 5689 5688 5688 5687 5687 5687 5686 5685 5685 5685 5684 5684 5684 5684 5684 5684 5683 5683 5683 5683 5682 5682 5681 5681 5680 5679 5679 5677 5676 5675 5674 5673 5672 5671 5670 5668 5667 5666